Location: ?????
(37.7324°N, 23.9257°E)
Time: 07:10:46
(UTC+00:00)

Cosmos 858 Rocket - Pass Details

Date: 29 November 2020
Orbit: 755 x 775 km, 74.1° (Epoch: 17 January)

Event Time Altitude Azimuth Distance (km) Brightness Sun altitude
Rises 03:43:34 0° 197° (SSW) 3,198 7.7 -18.5°
Reaches altitude 10° 03:45:55 10° 197° (SSW) 2,279 6.9 -18.1°
Maximum altitude 03:51:06 89° 284° (WNW) 766 4.4 -17.1°
Drops below altitude 10° 03:56:20 10° 18° (NNE) 2,307 7.0 -16.1°
Sets 03:58:44 0° 19° (NNE) 3,240 7.8 -15.6°
